Flag for Germany Weather past 2 weeks in Meiningen, Thuringia, Germany

Now
61 °F

Overcast.


Feels Like: 61 °F
Forecast: 53 / 70 °F
Wind: 3 mph from Southwest

Location: Meiningen

Current Time: Aug 29, 2014 at 1:08:43 PM

Latest Report: Aug 29, 2014 at 12:00 PM


Visibility: 8 mi

Pressure: 30.01 "Hg

Humidity: 87%

Dew point: 57 °F

Location of MeiningenLocation

Historic Weather in Meiningen — Graph

°F

Meiningen temperature yesterday

Maximum temperature yesterday: 69 °F (at 4:00 PM)
Minimum temperature yesterday: 45 °F (at 6:00 AM)
Average temperature yesterday: 57 °F

Past Weeks' High & Low Weather Summary

 TemperatureHumidityPressure
High69 °F (Aug 28, 4:00 PM)98% (Aug 19, 8:00 AM)30.13 "Hg (Aug 19, 8:00 AM)
Low41 °F (Aug 22, 6:00 AM)35% (Aug 22, 4:00 PM)29.68 "Hg (Aug 26, 9:00 AM)
Average54 °F78%29.95 "Hg
* Reported Aug 14 12:00 Noon — Aug 29 12:00 Noon, Meiningen, Weather by CustomWeather, © 2014

Note: Actual official high and low records may vary slightly from our data, if they occured in-between our weather recording intervals... More about our weather records

Advertising

Meiningen weather history for previous 24 hours

 ConditionsComfort  
Time TempWeatherWind HumidityBarometerVisibility
12:00 PM
Aug 29
61 °FOvercast.3 mph87%30.01 "Hg7 mi
10:00 AM60 °FOvercast.2 mph85%29.99 "Hg11 mi
9:00 AM58 °FOvercast.2 mph88%30.00 "Hg16 mi
8:00 AM56 °FOvercast.2 mph90%30.00 "Hg19 mi
7:00 AM55 °FPartly sunny.2 mph91%30.00 "Hg16 mi
6:00 AM54 °FPassing clouds.2 mph93%30.00 "Hg19 mi
5:00 AM55 °FOvercast.3 mph92%30.00 "Hg14 mi
4:00 AM56 °FOvercast.2 mph89%30.01 "Hg19 mi
3:00 AM57 °FPassing clouds.3 mph88%30.01 "Hg19 mi
2:00 AM57 °FPassing clouds.2 mph88%30.02 "Hg19 mi
1:00 AM57 °FOvercast.1 mph89%30.02 "Hg17 mi
12:00 AM59 °FOvercast.1 mph84%30.01 "Hg25 mi
10:00 PM
Aug 28
61 °FOvercast.2 mph78%30.01 "Hg34 mi
9:00 PM63 °FOvercast.1 mph71%30.00 "Hg43 mi
8:00 PM65 °FOvercast.2 mph65%29.99 "Hg43 mi
7:00 PM67 °FOvercast.2 mph61%29.98 "Hg43 mi
6:00 PM68 °FOvercast.3 mph54%29.99 "Hg37 mi
4:00 PM69 °FScattered clouds.5 mph48%30.00 "Hg37 mi
3:00 PM67 °FPartly sunny.3 mph53%30.02 "Hg31 mi
2:00 PM67 °FScattered clouds.5 mph56%30.03 "Hg28 mi
1:00 PM64 °FPassing clouds.5 mph61%30.05 "Hg25 mi
Weather by CustomWeather, © 2014

See weather overviewHow to use our weather pages